Regional Weather Roundup
Issued by NWS Little Rock, AR

Home | Current Version | Previous Version | Graphics & Text | Print | Product List | Glossary On
Versions: 1 2 3 4 5 6 7 8 9 10 11 12 13 14 15 16 17 18 19 20 21 22 23 24 25 26 27 28 29 30 31 32
000
ASUS44 KLZK 201212
RWRLZK

WEATHER ROUNDUP FOR ARKANSAS
NATIONAL WEATHER SERVICE LITTLE ROCK AR
600 AM CST MON NOV 20 2017

NOTE: "FAIR" INDICATES FEW OR NO CLOUDS BELOW 12,000 FEET WITH NO
SIGNIFICANT WEATHER AND/OR OBSTRUCTIONS TO VISIBILITY.

ARZ001-003-010-029-201300-
NORTHWEST ARKANSAS

CITY           SKY/WX    TMP DP  RH WIND       PRES   REMARKS
FAYETTEVILLE   CLEAR     27  27 100 CALM      30.14F
6HR MIN TEMP:  26; 6HR MAX TEMP:  31;

FORT SMITH     PTCLDY    35  32  88 NE3       30.18S
6HR MIN TEMP:  34; 6HR MAX TEMP:  39;

HARRISON       CLOUDY    31  26  82 S7        30.15S WCI  24
6HR MIN TEMP:  30; 6HR MAX TEMP:  35;

BENTONVILLE    CLEAR     37  26  64 S5        30.15S
6HR MIN TEMP:  35; 6HR MAX TEMP:  38;

ROGERS         PTCLDY    36  27  69 SE5       30.14S
6HR MIN TEMP:  33; 6HR MAX TEMP:  39;

SILOAM SPGS    CLOUDY    37  26  64 S5        30.14S
6HR MIN TEMP:  35; 6HR MAX TEMP:  40;

HIGHFILL       CLOUDY    36  26  67 S6        30.13S
6HR MIN TEMP:  30; 6HR MAX TEMP:  37;

SPRINGDALE     CLEAR     34  27  75 CALM      30.15
$$

ARZ004-005-016-201300-
NORTH CENTRAL ARKANSAS

CITY           SKY/WX    TMP DP  RH WIND       PRES   REMARKS
BATESVILLE     CLOUDY    33  24  69 SE5       30.23R WCI  29
6HR MIN TEMP:  28; 6HR MAX TEMP:  33;

FLIPPIN        CLOUDY    26  24  92 CALM      30.18S
6HR MIN TEMP:  26; 6HR MAX TEMP:  31;

MTN HOME       CLOUDY    33  25  72 S3        30.16S
6HR MIN TEMP:  30; 6HR MAX TEMP:  36;

$$

ARZ040-041-201300-
WEST CENTRAL ARKANSAS

CITY           SKY/WX    TMP DP  RH WIND       PRES   REMARKS
MENA           NOT AVBL
MOUNT IDA      CLOUDY    28  27  96 CALM      30.17F
6HR MIN TEMP:  28; 6HR MAX TEMP:  32;

$$

ARZ009-017-025-026-028-201300-
NORTHEAST ARKANSAS

CITY           SKY/WX    TMP DP  RH WIND       PRES   REMARKS
JONESBORO      PTCLDY    28  25  88 CALM      30.24R
6HR MIN TEMP:  27; 6HR MAX TEMP:  31;

NEWPORT        CLOUDY    30  28  92 S7        30.25R WCI  23
6HR MIN TEMP:  28; 6HR MAX TEMP:  35;

BLYTHEVILLE    CLEAR     31  27  85 S6        30.25S WCI  25
6HR MIN TEMP:  30; 6HR MAX TEMP:  36;

$$

ARZ022-023-033-042-044-201300-
CENTRAL ARKANSAS

CITY           SKY/WX    TMP DP  RH WIND       PRES   REMARKS
LITTLE ROCK    CLOUDY    31  31 100 CALM      30.25R
6HR MIN TEMP:  29; 6HR MAX TEMP:  36;

N LITTLE ROCK    N/A     38  27  64 S5        30.25S
6HR MIN TEMP:  38; 6HR MAX TEMP:  45;

JACKSONVILLE   CLOUDY    26  24  90 CALM      30.23R
6HR MIN TEMP:  26; 6HR MAX TEMP:  31;

SEARCY         CLEAR     26  26 100 CALM      30.25S
6HR MIN TEMP:  26; 6HR MAX TEMP:  30;

HOT SPRINGS    CLOUDY    31  29  92 CALM      30.22S FOG
6HR MIN TEMP:  31; 6HR MAX TEMP:  36;

RUSSELLVILLE   CLOUDY    28  27  96 CALM      30.20F
6HR MIN TEMP:  28; 6HR MAX TEMP:  32;

CLINTON        FAIR      27  25  93 CALM      30.23S
$$

ARZ036-201300-
EAST ARKANSAS

CITY           SKY/WX    TMP DP  RH WIND       PRES   REMARKS
WEST MEMPHIS   CLEAR     30  29  96 CALM      30.25R
6HR MIN TEMP:  26; 6HR MAX TEMP:  31;

$$

ARZ050-053-066-070-073-201300-
SOUTHWEST ARKANSAS

CITY           SKY/WX    TMP DP  RH WIND       PRES   REMARKS
ARKADELPHIA    FAIR      26  24  92 CALM      30.25R
6HR MIN TEMP:  26; 6HR MAX TEMP:  29;

CAMDEN         CLOUDY    28  25  86 CALM      30.25S
TEXARKANA      PTCLDY    38  33  82 CALM      30.21S
6HR MIN TEMP:  36; 6HR MAX TEMP:  43;

EL DORADO      PTCLDY    31  30  96 CALM      30.24S
6HR MIN TEMP:  31; 6HR MAX TEMP:  35;

DE QUEEN       PTCLDY    29  29 100 CALM      30.19F
6HR MIN TEMP:  29; 6HR MAX TEMP:  33;

$$

ARZ056-057-069-201300-
SOUTHEAST ARKANSAS

CITY           SKY/WX    TMP DP  RH WIND       PRES   REMARKS
PINE BLUFF     CLOUDY    28  26  92 CALM      30.25R
6HR MIN TEMP:  27; 6HR MAX TEMP:  33;

STUTTGART      CLEAR     35  29  78 SE5       30.25S WCI  31
6HR MIN TEMP:  34; 6HR MAX TEMP:  40;

MONTICELLO     CLOUDY    32  28  85 CALM      30.26R
6HR MIN TEMP:  31; 6HR MAX TEMP:  37;


$$






USA.gov is the U.S. government's official web portal to all federal, state and local government web resources and services.